Location: Hradec Kralove
(50.2170°N, 15.8330°E)
Time: 09:25:03
(UTC+02:00)

BlueWalker 3 - Visible Passes

Search period start: 24 September 2023 00:00
Search period end: 04 October 2023 00:00
Orbit: 492 x 508 km, 53.2° (Epoch: 23 September)

Date Brightness Start Highest point End Pass type
(mag) Time Alt. Az. Time Alt. Az. Time Alt. Az.
24 Sep 5.2 02:53:59 10° ENE 02:53:59 10° ENE 02:54:02 10° ENE visible
24 Sep 2.1 04:28:36 62° NNW 04:28:45 62° NNW 04:32:35 10° ENE visible
24 Sep 2.4 06:03:43 10° WNW 06:07:31 57° N 06:11:21 10° E visible
25 Sep 2.7 04:07:58 50° NE 04:07:58 50° NE 04:11:05 10° ENE visible
25 Sep 2.4 05:42:36 12° WNW 05:46:02 57° N 05:49:51 10° E visible
26 Sep 3.7 03:47:21 32° ENE 03:47:21 32° ENE 03:49:34 10° ENE visible
26 Sep 2.4 05:21:58 19° WNW 05:24:31 57° N 05:28:20 10° E visible
27 Sep 4.5 03:26:44 20° ENE 03:26:44 20° ENE 03:28:03 10° ENE visible
27 Sep 2.3 05:01:22 31° WNW 05:03:00 58° N 05:06:49 10° E visible
28 Sep 5.1 03:06:10 12° ENE 03:06:10 12° ENE 03:06:31 10° ENE visible
28 Sep 2.3 04:40:48 49° NW 04:41:28 58° N 04:45:16 10° E visible
28 Sep 2.1 06:16:11 10° WNW 06:19:58 60° SSW 06:23:48 10° SE visible
29 Sep 2.5 04:20:16 55° NE 04:20:16 55° NE 04:23:43 10° E visible
29 Sep 2.0 05:54:54 12° WNW 05:58:25 60° SSW 06:02:14 10° SE visible
30 Sep 3.6 03:59:49 33° ENE 03:59:49 33° ENE 04:02:09 10° E visible
30 Sep 2.0 05:34:27 21° WNW 05:36:52 59° SSW 05:40:39 10° SE visible
01 Oct 4.5 03:39:27 18° E 03:39:27 18° E 03:40:34 10° E visible
01 Oct 1.9 05:14:06 39° W 05:15:16 59° SSW 05:19:05 10° SE visible
02 Oct 2.0 04:53:52 58° SSW 04:53:52 58° SSW 04:57:28 10° SE visible
03 Oct 3.3 04:33:46 30° SE 04:33:46 30° SE 04:35:52 10° SE visible
03 Oct 3.9 06:08:25 11° WSW 06:09:53 14° SW 06:11:51 10° SSW visible
